Location: Newark
(29.9790°N, 31.1340°E)
Time: 01:04:26
(UTC+00:00)

Vanguard 3 - Pass Details

Date: 23 January 2021
Orbit: 508 x 3262 km, 33.4° (Epoch: 06 March)

Event Time Altitude Azimuth Distance (km) Brightness Sun altitude
Exits shadow 03:20:25 28° 279° (W) 2,340 8.9 -19.4°
Maximum altitude 03:25:41 74° 360° (N) 1,811 8.8 -18.3°
Drops below altitude 10° 03:40:37 10° 85° (E) 5,437 12.5 -15.1°
Sets 03:45:43 0° 87° (E) 6,779 13.4 -14.1°
